COSMOS 2594

基本信息
目录编号:
65270
目录名称:
COSMOS 2594
国际标识:
2025-182D
轨道中心:
EARTH
卫星名称:
COSMOS 2594
卫星全名:
COSMOS 2594
卫星状态:
在轨 (已飞行69 天)
发射日期:
2025-08-21 UTC
国别 :
俄罗斯(独联体) (CIS)
星等 :
--
轨道信息
数据来源 国际轨道数据
星历时间: 2025-10-25T02:09:33+0800
4天前
查看轨道信息
半长轴: 6691.13km
偏心率: 0.0013161
轨道倾角: 96.591°
近地点辐角 18.715°
升交点赤经 229.243°
平近点角 341.460°
近地点: 304.188km
远地点: 321.802km
周期: 90.784分钟
每日圈数: 15.861843
详细信息
使用方式:
暂无
2D轨道图
3D轨道图
轨道高度分析图
轨道倾角分析图
轨道综合分析图
查看轨道综合分析图